Regional Weather Roundup
Issued by NWS Albany, NY

Home | Current Version | Previous Version | Graphics & Text | Print | Product List | Glossary On
Versions: 1 2 3 4 5 6 7 8 9 10 11 12 13 14 15 16 17 18 19 20 21 22 23 24 25 26 27 28 29 30 31 32 33 34 35 36 37 38 39 40 41 42 43 44 45 46 47 48 49 50
000
ASUS41 KALY 032010
RWRALY

NEW YORK STATE HOURLY WEATHER ROUNDUP
NATIONAL WEATHER SERVICE ALBANY NY
400 PM EDT THU SEP 03 2015

NOTE: "FAIR" INDICATES FEW OR NO CLOUDS BELOW 12,000 FEET WITH NO
SIGNIFICANT WEATHER AND/OR NO OBSTRUCTIONS TO VISIBILITY.

NYZ032-033-038>043-046>054-057>066-NYZ062>081-032100-
EAST


CITY           SKY/WX    TMP DP  RH WIND       PRES   REMARKS
ALBANY         NOT AVBL
GLENS FALLS    TSTM      78  68  71 N8        29.88R
POUGHKEEPSIE   SUNNY     92  64  39 N7        29.83F HX  93
NEWBURGH       MOSUNNY   88  70  55 VRB7      29.87S HX  92
MONTGOMERY     MOSUNNY   92  69  47 NE8       29.84F HX  97
WHITE PLAINS   SUNNY     92  56  29 NE5       29.84F HX  90
ISLIP          MOSUNNY   85  69  58 S9        29.82S
NEW YORK CITY  PTSUNNY   91  61  36 NE6       29.82F HX  91
CENTRAL PARK   SUNNY     93  56  28 NE7       29.86F HX  91
$$

NYZ005>009-017-018-044>046-055-056-032100-
CENTRAL


CITY           SKY/WX    TMP DP  RH WIND       PRES   REMARKS
FULTON         SUNNY     84  71  65 NW9       29.91F
SYRACUSE       PTSUNNY   84  70  62 NW9       29.89F
ROME           PTSUNNY   83  68  60 NW8       29.91F
ELMIRA         MOSUNNY   87  67  51 NE10      29.90F HX  90
BINGHAMTON     PTSUNNY   82  67  60 N9        29.94F
MONTICELLO     MOSUNNY   84  66  54 N7        29.93S
$$

NYZ026>034-041>043-032100-
NORTH


CITY           SKY/WX    TMP DP  RH WIND       PRES   REMARKS
WATERTOWN      SUNNY     84  68  58 VRB6      29.91F
FORT DRUM      NOT AVBL
MASSENA        MOSUNNY   83  65  54 NW5       29.93S
SARANAC LAKE   PTSUNNY   79  59  50 N12       29.95S
PLATTSBURGH    MOSUNNY   79  64  60 NE14      29.91S
$$

NYZ001>004-010>016-019>021-032100-
WEST


CITY           SKY/WX    TMP DP  RH WIND       PRES   REMARKS
NIAGARA FALLS  MOSUNNY   83  70  64 N3        29.91F
BUFFALO        TSTM      79  71  76 W5        29.92F
DUNKIRK        MOSUNNY   81  72  74 VRB3      29.93F
JAMESTOWN      MOSUNNY   79  70  73 N6        29.97S
WELLSVILLE     MOSUNNY   85  61  44 VRB7      30.00F
ROCHESTER      PTSUNNY   83  69  62 N13       29.93F
PENN YAN       MOSUNNY   86  66  51 VRB7      29.93F
$$

             KEY
       WCI = WIND CHILL INDEX
       VSB = VISIBILITY
       HX  = HEAT INDEX
$$



USA.gov is the U.S. government's official web portal to all federal, state and local government web resources and services.